COSMOS 1261 DEB, 12894

Orbit data source: Space-Track

COSMOS 1261 DEB, 12894 is space debris in HEO originally from a launch on Tue, 31 Mar 1981 UTC launched from the Plesetsk Missile And Space Complex (PKMTR). Debris objects in space refer to the collection of defunct objects orbiting the Earth. Examples of debris include non-operational satellites, rocket bodies, and fragments generated from explosions, collisions, or faulty payload assembly.

Loading next visibility...
Identifier
12894, 1981-031G
Orbit
HEO
Country
Flag of CISCIS
Related business
Manufacturer
Unknown
Mission
Spacecraft
Bus & Motor
Unknown
Mass
Unknown
Launch date (UTC)
1981-03-31 (45 years ago)
Launch vehicle
Unknown
Launch site
Plesetsk Missile And Space Complex (PKMTR)
Object type
Payload
Rocket body
Debris
Shape & HBR
Unknown shape, 1.1 m
Radar Cross Section
Medium (>0.1 m² and <1 m²)

Expand to show TLE details & history
Last TLE update: 6 days ago

TLE from 6 days ago
0 COSMOS 1261 DEB
1 12894U 81031G   26030.29492251  .00000220  00000-0  00000-0 0  9996
2 12894  69.5100 100.7155 5736964 353.2475  33.2846  2.00305869299004
Epoch: 2026-01-30T07:04Z
TLE epoch observation values (Epoch: 2026-01-30T07:04:41.304Z)
Latitude
69.53428°
Longitude
-39.94555°
Altitude
13,117.613 km
Speed
5.093 km/s
True Right ascension
13h 03m 02s
True Declination
69° 29' 35"
Sunlit
Object was in daylight at epoch
Visualization orbit readout
Latitude
Unknown
Longitude
Unknown
Altitude
Unknown
Speed
Unknown
Apparent Right ascension
Unknown
Apparent Declination
Unknown
Sunlit
N/A
Visualization observer readout
Local Sidereal Time
03:07:05
Azimuth
Unknown
Elevation
Unknown
Doppler factor
Unknown
Orbital elements
Apogee altitude
35,454.159 km
Perigee altitude
4,953.946 km
Semi-major axis
26,582.189 km
Eccentricity
0.5737
Inclination
69.51°
RAAN
100.7155°
Arg. of periapsis
353.2475°
True anomaly
98.67012°
Mean anomaly
33.2846°
Eccentric anomaly
62.41968°
Mean motion
0.50079 °/min
Orbital period
718.86 mins
BSTAR
0
Loading maneuver chart data...
Computing Atmospheric mass density...
Loading historical data...
Loading historical data...
Loading historical data...
Loading historical data...
Loading historical data...
Loading historical data...
Loading historical data...

Documentation

Showing up to 5 results
|